カタログに戻る

SL-14 DEB

運用中PO
NORAD 44575·DEBRIS·🇷🇺 Russia

打ち上げ Jun 24, 1993 から Plesetsk Cosmodrome

Loading…

次のパス (今後24時間)

TLE

最新Source: Space-Track

元期: Sep 14, 2026, 12:08 UTC

1 44575U 93038H   26257.50596351  .00000014  00000-0  17918-4 0  9999
2 44575  82.5831 293.3780 0046843 122.8541 237.7068 12.54906594446781

AllMySatでSL-14 DEBをリアルタイム追跡

Download on the App Store